Tracking 19792 objects as of 15-Jul-2019
HD Live streaming from Space Station
objects crossing your sky now

COSMOS 1275 DEB

Track COSMOS 1275 DEB now!
10-day predictions


NORAD ID: 42158
Int'l Code: 1981-053RW
Perigee: 911.2 km
Apogee: 1,067.2 km
Inclination: 83.0 °
Period: 104.7 minutes
Semi major axis: 7360 km
RCS: Unknown
Launch date: June 4, 1981
Source: Commonwealth of Independent States (former USSR) (CIS)
Launch site: PLESETSK MISSILE AND SPACE COMPLEX (PKMTR)

Note: This is SATELLITE DEBRIS
aabbcc
Your satellite tracking list
Your tracking list is empty




NASA's NSSDC Master Catalog

Two Line Element Set (TLE):
1 42158U 81053RW  19195.43528072  .00000357  00000-0  34602-3 0  9996
2 42158  83.0088 246.4879 0105986 307.9644 107.6615 13.74884148801970
Source of the keplerian elements: AFSPC